Zurück zum Katalog

STARLINK-32521

AktivKommunikationVLEO
NORAD 62117·PAYLOAD·🇺🇸 United States

Gestartet Nov 27, 2024 von Cape Canaveral Space Force Station

Loading…

Nächste Überflüge (nächste 24 Stunden)

TLE

AktuellSource: CelesTrak SupGP

Epoche: Sep 14, 2026, 22:52 UTC

1 62117C 24222D   26257.95326389 -.00039616  00000+0 -14349-2 0  2572
2 62117  43.0027 143.6847 0001310 274.9415 140.3371 15.27597749    11

Verfolge STARLINK-32521 in Echtzeit mit AllMySat

Download on the App Store